Time,TemperatureF,DewpointF,PressureIn,WindDirection,WindDirectionDegrees,WindSpeedMPH,WindSpeedGustMPH,Humidity,HourlyPrecipIn,Conditions,Clouds,dailyrainin,SoftwareType,DateUTC
2013-01-28 20:00:00,67.1,58.2,29.68,SSW,203,11.6,11.6,73,0.00,,,0.00,WUHU216HW,2013-01-29 02:00:00,
2013-01-28 20:05:00,67.3,58.4,29.68,SSE,158,13.2,13.2,73,0.00,,,0.00,WUHU216HW,2013-01-29 02:05:00,
2013-01-28 20:10:00,67.1,58.2,29.68,South,180,16.3,16.3,73,0.00,,,0.00,WUHU216HW,2013-01-29 02:10:00,
2013-01-28 20:15:00,67.1,58.2,29.68,South,180,13.4,16.3,73,0.00,,,0.00,WUHU216HW,2013-01-29 02:15:00,
2013-01-28 20:21:00,67.1,58.6,29.68,South,180,11.9,16.3,74,0.00,,,0.00,WUHU216HW,2013-01-29 02:21:00,
2013-01-28 20:26:00,67.3,58.8,29.69,South,180,12.8,13.4,74,0.00,,,0.00,WUHU216HW,2013-01-29 02:26:00,
2013-01-28 20:32:00,67.3,58.8,29.68,SSW,203,15.0,15.0,74,0.00,,,0.00,WUHU216HW,2013-01-29 02:32:00,
2013-01-28 20:37:00,67.5,59.0,29.69,SSW,203,14.3,15.7,74,0.00,,,0.00,WUHU216HW,2013-01-29 02:37:00,
2013-01-28 20:42:00,67.5,59.0,29.69,South,180,12.1,15.7,74,0.00,,,0.00,WUHU216HW,2013-01-29 02:42:00,
2013-01-28 20:48:00,67.5,59.0,29.69,SSW,203,11.2,14.3,74,0.00,,,0.00,WUHU216HW,2013-01-29 02:48:00,
2013-01-28 20:53:00,67.5,59.0,29.69,South,180,17.0,17.0,74,0.00,,,0.00,WUHU216HW,2013-01-29 02:53:00,
2013-01-28 20:59:00,67.5,59.0,29.69,South,180,15.2,17.0,74,0.00,,,0.00,WUHU216HW,2013-01-29 02:59:00,
2013-01-28 21:05:00,67.5,59.0,29.69,South,180,9.8,17.0,74,0.00,,,0.00,WUHU216HW,2013-01-29 03:05:00,
2013-01-28 21:10:00,67.5,59.0,29.69,South,180,16.8,16.8,74,0.00,,,0.00,WUHU216HW,2013-01-29 03:10:00,
2013-01-28 21:15:00,67.7,59.1,29.68,South,180,15.7,16.8,74,0.00,,,0.00,WUHU216HW,2013-01-29 03:15:00,
2013-01-28 21:21:00,67.7,59.1,29.68,SSW,203,9.8,16.8,74,0.00,,,0.00,WUHU216HW,2013-01-29 03:21:00,
2013-01-28 21:26:00,67.7,59.1,29.68,South,180,15.0,15.0,74,0.00,,,0.00,WUHU216HW,2013-01-29 03:26:00,
2013-01-28 21:32:00,67.7,59.1,29.68,South,180,9.8,15.0,74,0.00,,,0.00,WUHU216HW,2013-01-29 03:32:00,
2013-01-28 21:37:00,67.3,59.1,29.68,South,180,13.4,13.4,75,0.00,,,0.00,WUHU216HW,2013-01-29 03:37:00,
2013-01-28 21:42:00,67.5,59.3,29.68,South,180,12.1,13.4,75,0.00,,,0.00,WUHU216HW,2013-01-29 03:42:00,
2013-01-28 21:48:00,67.3,59.1,29.68,SSW,203,9.8,13.4,75,0.00,,,0.00,WUHU216HW,2013-01-29 03:48:00,
2013-01-28 21:53:00,67.3,59.1,29.68,SW,225,10.7,10.7,75,0.00,,,0.00,WUHU216HW,2013-01-29 03:53:00,
2013-01-28 21:58:00,67.3,59.1,29.68,SW,225,13.9,13.9,75,0.00,,,0.00,WUHU216HW,2013-01-29 03:58:00,
2013-01-28 22:04:00,67.3,59.1,29.68,SSW,203,14.5,14.5,75,0.00,,,0.00,WUHU216HW,2013-01-29 04:04:00,
2013-01-28 22:09:00,67.5,59.3,29.68,South,180,9.4,14.5,75,0.00,,,0.00,WUHU216HW,2013-01-29 04:09:00,
2013-01-28 22:15:00,67.3,59.5,29.68,South,180,11.2,14.5,76,0.00,,,0.00,WUHU216HW,2013-01-29 04:15:00,
2013-01-28 22:20:00,67.5,59.7,29.68,SSW,203,12.8,12.8,76,0.00,,,0.00,WUHU216HW,2013-01-29 04:20:00,
2013-01-28 22:26:00,67.5,59.7,29.68,SSW,203,8.9,12.8,76,0.00,,,0.00,WUHU216HW,2013-01-29 04:26:00,
2013-01-28 22:31:00,67.3,59.5,29.68,SSW,203,13.2,13.2,76,0.00,,,0.00,WUHU216HW,2013-01-29 04:31:00,
2013-01-28 22:36:00,67.3,59.5,29.68,SSW,203,9.2,13.2,76,0.00,,,0.00,WUHU216HW,2013-01-29 04:36:00,
2013-01-28 22:42:00,67.3,59.5,29.68,South,180,10.1,13.2,76,0.00,,,0.00,WUHU216HW,2013-01-29 04:42:00,
2013-01-28 22:47:00,67.3,59.5,29.68,South,180,9.8,13.4,76,0.00,,,0.00,WUHU216HW,2013-01-29 04:47:00,
2013-01-28 22:53:00,67.3,59.5,29.68,South,180,13.4,13.4,76,0.00,,,0.00,WUHU216HW,2013-01-29 04:53:00,
2013-01-28 22:58:00,67.5,59.7,29.68,South,180,14.3,14.3,76,0.00,,,0.00,WUHU216HW,2013-01-29 04:58:00,
2013-01-28 23:03:00,67.5,59.7,29.68,SSW,203,8.9,14.3,76,0.00,,,0.00,WUHU216HW,2013-01-29 05:03:00,
2013-01-28 23:09:00,67.7,59.9,29.68,South,180,9.2,14.3,76,0.00,,,0.00,WUHU216HW,2013-01-29 05:09:00,
2013-01-28 23:14:00,67.7,60.2,29.68,SSW,203,9.2,11.4,77,0.00,,,0.00,WUHU216HW,2013-01-29 05:14:00,
2013-01-28 23:20:00,67.7,59.9,29.67,SSW,203,12.5,12.5,76,0.00,,,0.00,WUHU216HW,2013-01-29 05:20:00,
2013-01-28 23:25:00,67.7,59.9,29.67,SSW,203,9.2,14.5,76,0.00,,,0.00,WUHU216HW,2013-01-29 05:25:00,
2013-01-28 23:30:00,67.5,60.0,29.67,SSW,203,11.0,14.5,77,0.00,,,0.00,WUHU216HW,2013-01-29 05:30:00,
2013-01-28 23:36:00,67.5,59.7,29.67,South,180,11.6,11.6,76,0.00,,,0.00,WUHU216HW,2013-01-29 05:36:00,
2013-01-28 23:41:00,67.3,59.9,29.67,South,180,11.6,11.6,77,0.00,,,0.00,WUHU216HW,2013-01-29 05:41:00,
2013-01-28 23:47:00,67.3,59.9,29.66,South,180,10.3,11.6,77,0.00,,,0.00,WUHU216HW,2013-01-29 05:47:00,
2013-01-28 23:52:00,67.1,59.7,29.66,SSW,203,12.3,12.3,77,0.00,,,0.00,WUHU216HW,2013-01-29 05:52:00,
2013-01-28 23:57:00,67.0,59.5,29.66,SSW,203,11.4,12.3,77,0.00,,,0.00,WUHU216HW,2013-01-29 05:57:00,